Regional Weather Roundup
Issued by NWS

Home | Current Version | Previous Version | Graphics & Text | Print | Product List | Glossary On
Versions: 1 2 3 4 5 6 7 8 9 10 11 12 13 14 15 16 17 18 19 20 21 22 23 24 25 26 27 28 29 30 31 32 33 34 35 36 37 38 39 40 41 42 43 44 45 46 47 48 49 50
988
ASUS43 KIND 080859
RWRIN

WEATHER ROUNDUP FOR INDIANA
NATIONAL WEATHER SERVICE INDIANAPOLIS IN
400 AM EST MON FEB 08 2016

NOTE: "FAIR" INDICATES FEW OR NO CLOUDS BELOW 12,000 FEET WITH NO
SIGNIFICANT WEATHER AND/OR OBSTRUCTIONS TO VISIBILITY.

* - STATION DOES NOT REPORT WEATHER SUCH AS PRECIPITATION OR FOG.

+ - STATION NOT QUALITY CONTROLLED BY THE NATIONAL WEATHER SERVICE.
    USE DATA WITH CAUTION...ESPECIALLY DEWPOINT AND RELATIVE
    HUMIDITY OBSERVATIONS.

INZ001>003-010>013-019-020-081000-
NORTHWEST INDIANA

CITY           SKY/WX    TMP DP  RH WIND       PRES   REMARKS

$$

LMZ046-743>745-081000-
SOUTHERN LAKE MICHIGAN

STATION/POSITION TIME  TEMP    WIND        PRES    WAVE
                       AIR SEA DIR/SP/G            HT
                 (UTC) (F)     (DEG/KT/KT) (MB)    (FT)
BURNS HARBOR     0800   35     210/ 10/ 12 1005.4F
MICHIGAN CITY    0800   34     190/  8/  9   N/A

$$

INZ004-005-014>016-021>024-081000-
NORTH CENTRAL INDIANA

CITY           SKY/WX    TMP DP  RH WIND       PRES   REMARKS
GOSHEN         PTCLDY    31  27  85 SW6       29.65F WCI  25
SOUTH BEND     PTCLDY    27  23  85 CALM      29.65F

$$

INZ006>009-017-018-025>027-081000-
NORTHEAST INDIANA

CITY           SKY/WX    TMP DP  RH WIND       PRES   REMARKS
ANGOLA *+      CLEAR     28  28 100 CALM      29.63F
FORT WAYNE     MOCLDY    32  29  88 SW5       29.66F WCI  27

$$

INZ028-029-035-036-043>045-051>053-081000-
WEST CENTRAL INDIANA

CITY           SKY/WX    TMP DP  RH WIND       PRES   REMARKS
GREENCASTLE +  LGT SNOW  32  28  86 CALM      29.71F
LAFAYETTE      CLOUDY    31  26  82 CALM      29.68F
TERRE HAUTE    MOCLDY    33  30  88 SW6       29.73F WCI  28

$$

INZ030>032-037>040-046>048-054>057-064-065-081000-
CENTRAL INDIANA

CITY           SKY/WX    TMP DP  RH WIND       PRES   REMARKS
GREENWOOD *+   CLOUDY    39  34  81 W9        29.71F
INDIANAPOLIS   LGT RAIN  37  31  78 SW13      29.69F
-EAGLE CREEK   CLOUDY    37  31  78 SW3       29.69F
KOKOMO *+        N/A     32  27  80 SW5       29.67F WCI  27
MT COMFORT *+  CLOUDY    36  32  87 SW5       29.69F
SHELBYVILLE    CLOUDY    38  31  76 W7        29.69F

$$

INZ033-034-041-042-049-050-058-059-081000-
EAST CENTRAL INDIANA

CITY           SKY/WX    TMP DP  RH WIND       PRES   REMARKS
MUNCIE         CLOUDY    38  31  76 SW6       29.67F

$$

INZ060-061-067>069-081>083-085>088-081000-
SOUTHWEST INDIANA

CITY           SKY/WX    TMP DP  RH WIND       PRES   REMARKS
EVANSVILLE     CLOUDY    37  33  85 CALM      29.77F
HUNTINGBURG *+ CLEAR     34  28  80 S7        29.77F WCI  28

$$

INZ062-063-066-070>080-084-089>092-081000-
SOUTH CENTRAL AND SOUTHEAST INDIANA

CITY           SKY/WX    TMP DP  RH WIND       PRES   REMARKS
BLOOMINGTON    CLOUDY    37  33  85 NW5       29.71F
MADISON *+     CLOUDY    41  32  70 SW7       29.73F
SEYMOUR +      DRIZZLE   41  32  70 W14       29.73S

$$





USA.gov is the U.S. government's official web portal to all federal, state and local government web resources and services.